Location: Bear Valley Meadows
(40.9851°N, 123.0761°W)
Time: 16:32:44
(UTC+00:00)

SL-24 DEB - Pass Details

Date: 29 May 2024
Orbit: 648 x 683 km, 92.0° (Epoch: 17 June)

Event Time Altitude Azimuth Distance (km) Brightness Sun altitude
Rises 11:58:57 0° 359° (N) 2,977 8.1 -7.8°
Reaches altitude 10° 12:01:13 10° 354° (N) 2,060 7.2 -7.5°
Maximum altitude 12:05:35 51° 279° (W) 823 4.4 -6.8°
Drops below altitude 10° 12:09:56 10° 204° (SSW) 2,047 6.2 -6.2°
Enters shadow 12:11:44 - 200° (SSW) 2,771 6.9 -5.9°
